Terminal Aerodrome Forecast
Issued by NWS Omaha/Valley, NE

Home | Current Version | Previous Version | Text Only | Print | Product List | Glossary On
Versions: 1 2 3 4 5 6 7 8 9 10 11 12 13 14 15
000
FTUS43 KOAX 140520
TAFLNK
TAF
KLNK 140520Z 1406/1506 33006KT P6SM BKN040
     FM141700 31006KT P6SM OVC030 PROB30 1418/1424 5SM -RASN OVC015
     FM150100 33004KT P6SM BKN040=

USA.gov is the U.S. government's official web portal to all federal, state and local government web resources and services.